sat.trackr.live / text

‹ back to catalog

WNISAT-1

NORAD 39423 · 2013-066H

PAYLOAD ACTIVE UNKNOWN

§ Identity

Operator
Country
JPN
Launch date
2013-11-21
Launch site
DLS
Launch vehicle
Mass (kg)
RCS (m²)
0.17

Purposes: tech_demo

External: N2YO · Heavens-Above · Gunter

§ Orbital elements

Epoch: 2026-09-19T08:38:03.494688Z

Period
98.75 min
Inclination
97.7342°
Eccentricity
0.0161436
Mean motion
14.58196804 rev/d
Perigee alt
584.8 km
Apogee alt
813.3 km
Semi-major
7,077.1 km
B*
8.1956e-5
RAAN
44.9087°
Arg perigee
295.4991°
Mean anomaly
62.9588°
Rev number
68,045

§ Raw data

WNISAT-11 39423U 13066H   26262.35976267  .00000400  00000+0  81956-4 0  99962 39423  97.7342  44.9087 0161436 295.4991  62.9588 14.58196804680454

JSON: /api/v1/satellites/39423 · /tle

For live sub-satellite position, see the globe view (requires WebGL).

§ Visibility from observer

Set your observer location to see the next 7 days of passes ≥ 10°. The values pass through the URL so the page stays shareable.

No JS? Fill the form by hand. The geolocation button needs JavaScript.